RH
4 4 4 4 4 4 4 4 4 4 4 4 4 4 4 4 4 4 4 5 5 5 5 5 5 5 4 4 4 3 3 3 2 3 7 10 10 14 17 23 30 25 18 14 12 16 24 34 49 66 70 67 66 65 67 63 64 65 67 73 74 83 86 88 91 82 86 79 70 74 66 65 63 58 59 51 47 43 43 45 42 43 43 42 38 30 30 28
4 4 4 4 4 4 4 4 4 4 4 4 4 4 4 3 4 4 4 4 4 4 5 5 5 5 5 5 4 4 3 3 3 2 3 7 9 12 16 19 25 26 22 19 15 14 20 30 38 54 66 67 66 65 65 63 64 64 65 73 78 87 89 87 85 78 86 83 72 74 68 67 62 56 55 50 49 46 41 39 35 36 36 37 37 30 27 27
4 4 4 4 4 4 4 4 4 4 4 4 4 4 4 4 4 4 3 3 4 4 4 4 5 5 5 5 5 4 4 3 3 3 2 4 6 10 14 17 20 23 23 20 16 14 17 24 29 40 56 64 65 65 65 64 64 64 65 69 78 89 85 80 76 72 83 81 71 73 71 66 58 57 56 48 52 54 47 41 34 34 36 36 36 31 25 24
4 4 4 4 4 4 4 4 4 3 4 3 3 4 3 4 3 4 4 3 4 3 4 4 4 4 5 5 5 5 4 4 4 3 3 2 3 7 11 15 18 19 22 21 17 15 14 19 28 35 49 62 67 66 65 66 64 64 67 67 78 86 77 72 71 69 75 73 70 76 73 64 60 59 53 46 56 61 52 46 38 33 35 34 34 31 25 23
5 5 5 5 5 5 5 4 5 4 4 4 4 4 4 4 3 4 4 3 4 3 4 4 3 4 4 4 5 5 5 4 4 4 4 3 3 4 7 13 15 17 19 22 21 19 15 16 25 32 44 60 68 70 68 68 65 66 68 66 74 77 68 66 66 67 71 69 72 80 73 63 64 60 51 49 58 65 60 57 47 32 30 30 31 32 28 25
7 7 6 6 6 6 6 6 6 6 5 5 5 5 5 4 4 4 4 4 4 3 4 3 4 4 3 4 4 5 4 4 5 5 4 4 3 2 4 8 12 15 15 19 23 24 22 17 18 26 39 55 67 73 70 68 65 65 66 63 66 66 61 62 64 69 71 67 70 78 73 69 71 63 56 56 61 67 64 66 59 36 25 23 23 30 30 27
8 8 8 8 7 7 7 7 7 6 6 6 6 6 6 5 5 5 5 4 4 4 4 3 4 4 4 4 3 4 4 4 5 5 6 5 4 3 2 4 9 13 12 14 19 26 30 23 17 21 33 50 67 78 76 70 65 62 64 63 62 60 57 57 62 69 71 67 66 70 71 75 77 64 59 60 63 66 60 64 63 40 27 22 17 24 30 29
10 10 10 10 9 9 9 9 8 8 8 7 7 7 6 6 6 6 5 5 5 5 5 4 4 4 4 4 4 4 3 4 4 5 6 6 5 4 3 3 5 8 11 11 13 20 29 29 24 19 25 40 64 83 81 75 72 66 64 64 62 59 56 54 58 64 67 65 61 62 66 75 76 63 63 64 61 61 58 65 62 40 28 24 17 17 24 28
12 12 11 11 11 11 10 10 10 9 9 9 8 8 7 7 6 6 6 6 6 5 5 5 5 4 4 4 3 4 4 4 4 4 5 6 6 6 5 3 3 4 7 9 10 13 20 28 31 26 22 28 53 79 80 79 80 72 67 64 62 60 56 54 55 59 61 59 58 59 61 71 74 63 63 65 60 59 59 63 59 39 26 22 18 14 18 24
13 13 12 12 11 11 10 9 9 9 8 8 7 7 7 7 7 7 7 6 6 6 6 6 5 5 4 4 4 4 4 3 4 4 4 5 6 6 6 5 4 3 4 6 8 10 13 20 30 32 26 21 36 58 69 78 78 72 69 64 63 62 57 54 54 57 59 55 55 56 59 69 73 67 66 64 59 59 58 58 55 40 26 22 18 13 16 20
14 13 12 11 10 9 9 8 7 7 7 6 6 6 6 6 6 6 6 6 6 6 6 6 6 6 5 5 5 4 4 4 4 4 4 4 5 6 6 6 5 4 3 3 5 7 8 13 22 29 28 23 26 36 52 69 69 69 72 66 66 64 58 54 51 56 60 54 52 55 61 68 72 74 73 63 58 58 56 57 56 43 32 29 21 13 14 17
15 14 13 11 10 9 9 8 8 7 7 6 6 6 5 5 5 5 5 5 5 5 5 5 5 6 6 5 5 5 4 4 4 4 4 4 4 5 6 6 6 5 4 3 3 5 5 8 14 21 28 28 27 27 36 49 54 60 66 64 66 66 60 55 48 53 57 54 51 53 59 67 74 78 75 64 59 61 57 57 56 43 39 38 26 16 14 15
16 15 13 12 11 10 9 9 8 8 8 8 7 7 6 6 6 5 5 5 5 5 4 4 4 4 5 5 6 6 5 5 4 5 4 4 4 4 5 5 6 7 6 5 3 3 4 5 7 13 22 27 31 27 24 31 35 44 53 53 59 60 58 57 49 48 54 53 51 51 57 70 76 73 72 67 61 63 60 58 53 43 46 44 29 19 14 12
18 16 15 13 12 10 10 9 9 9 8 8 8 7 7 6 6 6 6 6 5 5 5 4 4 4 4 4 5 5 6 6 5 5 5 4 4 4 4 4 5 7 7 6 5 3 3 3 5 8 14 23 31 26 23 31 29 31 39 37 42 46 49 55 50 46 50 51 49 49 57 72 75 70 73 70 63 64 62 60 57 49 50 44 30 23 16 11
21 20 18 16 14 13 12 11 10 10 9 9 9 8 8 7 7 6 6 6 6 6 5 5 5 4 4 4 4 4 5 6 6 5 5 5 5 4 4 4 4 5 7 7 6 5 3 3 3 4 7 15 25 26 32 41 35 30 30 24 26 30 38 48 44 41 48 50 47 45 53 64 67 70 76 70 66 67 62 61 61 55 52 44 34 29 23 17
24 23 22 20 19 17 16 15 14 13 12 11 11 10 9 9 8 7 6 6 6 6 6 6 5 4 5 4 4 4 4 4 5 6 5 5 5 5 5 4 4 4 5 7 7 6 4 4 3 3 4 8 16 24 35 46 43 38 31 23 24 23 29 38 35 36 46 50 46 41 47 59 66 72 74 71 72 72 67 64 61 62 59 46 38 33 28 24
26 25 24 23 22 20 19 18 16 15 14 12 11 10 9 9 9 8 7 6 6 6 6 6 5 4 4 4 4 4 4 4 4 5 6 6 5 5 5 5 5 4 4 5 7 8 6 5 4 3 3 3 8 17 30 41 42 38 34 30 29 24 27 33 32 38 46 46 44 42 43 52 63 71 73 75 75 73 72 65 58 66 67 51 42 36 31 29
27 26 25 24 23 22 20 18 17 16 14 13 12 12 11 11 11 10 9 8 7 6 6 6 6 5 4 4 4 4 4 4 4 4 5 6 6 5 6 5 5 4 4 4 5 7 8 7 5 4 3 3 4 8 19 31 34 37 39 38 37 31 29 32 32 42 53 50 45 47 45 44 53 66 71 72 72 71 70 66 64 69 67 56 48 41 35 33
25 24 23 22 21 21 20 19 18 17 16 16 15 14 13 12 12 12 11 9 8 7 6 6 6 6 5 5 4 4 4 4 4 4 4 5 6 6 5 5 6 5 4 4 4 5 7 8 6 4 3 3 3 4 9 18 28 39 45 44 45 40 34 37 41 46 58 58 46 45 47 43 48 59 62 64 70 72 69 71 71 65 60 57 51 45 43 37
21 21 21 21 21 21 21 21 20 20 18 17 15 13 12 11 11 10 10 9 9 8 7 6 6 6 7 6 6 5 4 4 4 4 3 4 5 6 6 5 6 6 5 4 4 4 6 8 7 6 5 4 4 3 3 7 17 32 41 43 46 46 42 47 50 44 50 59 50 46 49 45 47 51 52 63 71 71 75 79 69 58 61 62 52 49 50 42
21 22 22 22 22 22 22 22 21 20 18 16 14 11 10 9 8 8 8 8 8 8 7 6 6 6 6 7 6 6 5 4 4 3 4 3 4 5 6 6 5 6 6 5 5 4 4 5 6 7 7 6 5 4 4 3 7 17 28 35 41 46 47 51 52 42 40 51 56 56 51 51 59 52 46 64 76 70 75 80 70 65 67 62 56 52 51 45
23 23 23 23 22 22 21 20 19 17 15 13 11 9 8 7 7 7 6 6 6 6 6 6 6 6 5 5 5 5 5 4 4 4 3 3 4 4 5 6 6 5 6 6 6 4 4 4 4 8 10 9 6 5 5 3 4 8 14 24 32 38 45 53 60 58 48 46 57 64 56 54 60 48 41 63 78 69 70 77 73 71 67 62 59 54 52 46
25 24 24 23 22 21 19 17 15 13 11 9 7 6 6 6 6 5 5 5 5 5 5 4 5 5 4 5 4 4 4 4 4 3 3 3 3 4 4 6 6 6 6 6 6 5 4 4 4 6 10 11 8 6 6 5 3 4 6 13 21 31 43 53 60 66 61 47 47 57 59 60 61 48 39 55 75 74 73 79 71 63 63 62 58 55 57 47
26 25 24 23 21 18 15 13 10 8 7 6 5 5 5 5 5 5 5 5 4 4 4 4 4 4 3 4 3 3 3 3 3 3 3 3 3 3 3 5 6 6 5 6 6 6 5 5 4 5 8 12 12 7 6 6 5 3 3 6 11 22 35 50 64 69 66 52 41 47 54 57 64 59 41 42 67 78 74 77 74 68 66 62 58 56 58 50
25 24 21 19 18 14 10 8 6 5 5 4 5 5 5 6 5 6 5 5 5 4 4 5 4 4 4 4 4 4 3 3 3 3 2 2 2 3 3 4 5 6 6 6 6 6 6 6 5 5 6 10 14 11 7 7 7 5 4 3 5 13 21 39 62 72 79 71 49 46 52 49 53 59 51 40 50 66 73 76 76 77 73 63 61 62 60 55
22 19 15 13 11 9 6 5 4 4 4 4 5 5 6 6 6 7 6 7 8 5 7 9 7 7 7 6 7 6 5 4 3 3 2 2 2 2 3 4 5 5 6 6 6 6 7 7 6 5 5 7 11 14 12 8 8 6 6 4 2 7 12 23 44 61 79 76 50 45 48 44 45 48 49 46 43 56 74 76 68 71 74 65 63 69 66 58
14 11 9 7 5 5 4 4 3 4 4 5 5 6 7 7 7 8 6 12 14 7 9 13 12 11 10 8 9 8 7 6 5 4 3 2 2 2 3 3 4 6 6 6 6 5 6 7 7 6 4 6 9 13 14 10 10 9 7 7 3 3 7 12 25 43 56 52 50 63 56 38 42 44 42 47 49 54 61 63 62 65 68 64 65 70 65 59
9 6 5 4 4 3 3 3 3 4 5 5 6 6 7 7 9 10 11 20 22 11 10 15 15 14 12 11 10 9 8 7 6 5 4 4 3 2 3 3 4 5 6 6 6 6 7 7 8 8 5 5 6 9 16 15 13 12 9 8 5 3 4 6 12 25 36 33 38 63 63 44 46 48 43 46 48 49 50 51 53 58 61 61 67 72 65 60
6 4 4 3 3 2 3 5 4 5 6 6 6 7 8 9 12 15 16 20 19 13 15 16 16 17 16 15 13 11 9 8 6 6 5 5 4 4 4 3 3 5 5 5 6 6 7 7 9 9 6 6 6 6 17 22 18 15 14 10 7 4 3 4 6 10 23 29 22 33 55 68 71 59 45 43 42 40 42 44 39 39 52 59 64 70 66 60
4 4 4 3 3 3 5 7 7 8 8 8 9 10 12 14 16 17 15 14 13 16 19 17 18 20 20 20 17 13 12 9 8 7 7 6 5 6 6 5 4 4 5 5 6 7 6 7 11 11 7 6 7 8 16 25 22 19 20 13 7 7 3 2 5 5 11 19 15 15 40 78 87 57 29 32 46 45 35 36 34 28 45 63 61 60 61 61
4 4 4 3 4 5 9 13 16 16 15 15 15 15 17 18 18 15 12 14 14 16 16 15 19 20 20 23 19 16 15 12 9 8 9 8 7 6 6 11 10 4 5 5 4 6 7 6 8 10 10 8 9 10 14 22 24 21 22 18 10 9 8 3 3 5 5 7 9 9 26 64 77 48 25 28 43 49 40 36 35 28 41 62 61 57 61 62
4 4 4 3 6 11 19 23 23 22 21 21 19 18 18 16 15 12 9 15 15 13 14 15 16 16 18 22 20 18 19 15 12 10 10 11 11 9 9 15 15 6 4 7 6 7 8 8 9 9 8 8 10 12 12 17 24 25 24 23 17 11 10 8 3 4 4 3 6 6 12 32 39 29 33 45 48 55 57 47 42 39 38 51 63 63 64 64
4 4 3 4 9 19 28 29 25 22 22 22 21 19 14 11 14 13 11 12 11 12 14 12 12 13 16 17 16 19 22 19 16 12 12 14 13 11 9 10 13 10 10 14 14 12 10 6 5 10 11 7 9 13 13 12 17 27 29 25 22 16 13 11 6 3 4 2 3 5 7 12 13 9 21 51 66 70 67 41 28 41 42 46 66 68 60 63
4 4 3 5 14 25 30 28 24 22 20 21 21 19 14 12 13 13 12 10 9 11 11 11 12 12 15 14 13 19 21 18 18 17 15 16 15 16 15 10 8 11 14 16 15 22 39 36 13 6 10 8 9 11 14 14 15 24 33 33 29 22 18 17 12 5 2 3 4 3 4 4 7 6 5 25 46 62 79 61 28 34 44 44 59 64 59 65
5 5 4 7 19 29 30 28 25 23 21 19 20 20 18 18 17 15 14 12 14 14 13 15 15 14 17 15 14 20 20 16 17 20 19 17 20 24 21 13 8 9 12 16 16 23 55 74 52 30 21 10 10 13 15 20 22 21 29 42 41 25 19 30 34 22 7 5 7 6 6 2 3 7 4 7 14 27 59 66 39 33 42 43 56 65 62 67
7 7 7 12 24 29 29 29 26 24 22 18 19 21 19 19 18 18 17 15 17 18 19 21 18 20 21 16 16 17 19 22 18 21 26 21 19 20 15 11 11 9 7 14 21 18 35 71 85 82 64 28 8 13 17 21 28 30 28 34 43 35 22 29 40 35 19 16 22 18 12 5 0 3 5 5 5 8 19 25 22 28 37 42 55 67 64 64
8 8 9 15 24 28 28 28 24 24 23 18 18 20 17 17 16 17 18 16 18 20 25 27 22 23 24 24 26 16 19 35 26 22 36 29 19 18 13 11 12 11 8 7 14 14 21 53 79 91 94 69 36 23 22 18 27 53 57 38 40 48 36 28 40 41 24 20 30 32 27 20 9 2 3 4 3 6 10 10 14 22 28 31 41 55 63 66
7 9 12 18 24 27 28 26 24 24 21 17 17 16 15 16 15 17 17 16 20 22 27 31 25 25 31 33 32 20 22 41 32 23 37 35 26 22 15 14 11 10 13 9 9 11 11 28 50 65 86 93 69 43 33 23 18 48 81 71 55 60 49 32 38 40 27 25 31 31 32 37 32 13 2 3 3 3 5 8 13 19 25 27 33 46 58 62
6 8 13 19 24 28 27 24 25 23 20 22 23 16 14 17 15 16 17 16 21 22 23 30 27 28 34 31 30 29 26 33 34 30 36 37 32 25 19 21 17 10 12 10 9 11 7 13 27 44 75 98 92 78 69 57 35 35 70 95 89 82 68 44 33 27 27 44 51 37 25 31 40 29 9 3 3 2 5 6 9 16 23 27 30 40 49 53
6 6 12 18 22 26 25 25 25 21 19 25 25 16 15 17 15 17 19 17 21 23 21 27 30 29 29 24 28 33 22 19 28 33 38 39 33 28 24 24 23 17 15 14 11 8 8 10 11 21 53 77 80 87 84 73 65 50 53 82 97 95 88 71 54 33 20 36 60 60 44 33 33 28 13 6 4 1 2 4 9 14 20 27 28 33 43 46
7 8 13 18 23 27 27 27 25 20 19 20 19 17 16 17 17 17 19 19 20 23 21 23 27 26 25 22 24 26 19 17 23 27 36 44 43 40 30 23 25 24 19 18 18 15 11 10 9 10 35 58 62 76 83 72 79 78 61 68 86 91 91 87 80 60 29 21 44 62 62 55 54 50 30 11 3 3 3 2 7 13 19 27 24 28 42 41
12 15 18 21 27 31 28 26 23 19 21 20 18 20 18 17 18 16 17 18 17 21 21 19 20 20 20 20 19 20 18 19 21 22 30 41 47 46 30 16 22 26 25 25 24 26 18 11 10 6 22 57 78 93 99 86 91 102 88 79 87 94 96 90 87 80 56 33 35 52 63 66 74 78 61 30 6 1 4 2 4 10 17 26 23 25 39 36
17 22 26 30 33 32 29 33 31 22 22 23 20 20 20 17 18 16 16 17 16 17 18 17 16 16 16 15 15 18 18 18 21 23 27 33 36 33 22 18 25 28 33 36 32 29 22 13 15 10 8 30 59 80 87 80 85 100 101 95 89 90 97 96 90 89 80 62 50 51 54 58 71 76 66 44 18 2 2 3 3 7 13 22 24 24 31 29
22 29 36 39 37 32 30 37 37 27 23 24 22 22 22 19 18 18 18 19 18 17 17 17 16 16 17 15 15 17 18 20 25 29 34 39 38 32 21 19 27 32 39 45 38 27 21 18 17 16 14 13 22 42 53 57 64 70 83 95 84 78 93 100 96 97 93 81 74 69 55 48 64 74 61 37 14 3 5 3 1 6 10 17 22 24 30 30
27 37 43 42 38 34 32 32 33 29 26 26 25 24 23 22 20 20 20 21 21 20 19 19 18 18 19 18 18 23 30 35 38 41 44 48 53 54 45 34 32 33 35 38 38 28 24 26 20 15 20 19 21 34 43 58 74 68 66 80 82 83 93 95 96 102 94 81 82 89 77 53 48 67 78 58 20 3 7 5 1 6 10 15 21 23 29 33
36 47 49 44 40 37 35 34 32 31 29 27 28 27 26 26 24 22 22 23 22 22 22 22 22 22 22 24 31 40 48 47 38 34 32 34 44 53 55 53 51 45 36 31 36 36 30 30 27 21 21 22 33 50 51 54 68 65 58 73 92 99 95 91 98 100 89 81 82 88 89 76 57 58 73 68 32 5 4 4 2 6 8 12 18 18 22 26
47 56 51 46 44 41 39 37 33 31 31 30 30 30 30 30 27 26 24 24 24 24 24 26 24 23 31 46 55 49 42 34 27 30 36 38 41 43 42 44 49 52 50 39 32 35 36 36 33 27 22 21 31 48 51 40 34 35 46 66 87 99 98 94 95 91 86 86 85 83 85 87 82 74 77 78 57 25 9 7 6 6 6 7 12 14 18 21
53 61 54 49 49 44 40 39 36 34 33 32 30 31 33 32 29 28 26 25 26 26 28 29 24 30 47 60 55 38 27 26 28 38 52 55 55 54 49 42 39 42 54 55 43 34 33 36 38 33 25 25 32 44 55 49 31 26 38 50 62 81 97 101 96 95 97 94 87 87 88 83 81 87 93 94 74 38 12 8 7 5 4 4 7 13 17 21
61 65 59 54 52 46 42 42 39 35 33 31 29 28 31 32 31 29 28 28 27 27 31 30 27 44 61 52 37 29 25 28 35 42 54 63 66 66 60 52 46 43 50 60 58 49 38 30 34 37 30 27 33 39 49 53 40 25 27 39 54 65 76 90 100 100 96 94 92 95 97 84 72 78 89 88 73 47 20 7 6 8 10 6 5 10 14 20
64 66 62 60 55 50 48 45 41 39 35 31 27 26 29 33 32 31 31 30 29 29 32 32 34 53 62 43 30 33 29 29 36 41 46 55 63 67 66 64 62 53 46 48 57 68 65 44 31 32 33 31 30 29 33 38 35 28 23 30 48 61 66 80 99 101 91 90 96 99 100 92 77 76 83 79 71 54 26 7 5 10 14 11 6 8 12 18
65 70 66 64 61 57 54 49 44 43 38 31 27 25 30 35 34 33 33 31 31 32 34 35 40 51 51 38 34 39 37 32 34 35 35 41 49 55 62 70 71 63 53 50 58 77 89 76 51 35 30 29 30 29 28 26 27 31 32 29 34 50 64 68 72 78 77 77 89 101 101 95 87 78 64 52 53 49 27 10 8 9 11 13 10 7 8 14
65 79 75 70 67 63 59 54 50 47 42 36 29 24 29 36 37 35 34 32 32 34 36 36 39 44 44 41 43 45 42 41 42 41 37 34 36 41 46 56 65 69 68 64 61 71 90 98 86 63 41 29 27 28 29 32 34 31 31 34 30 33 45 47 43 49 52 55 77 98 95 91 92 78 52 36 37 37 25 12 8 7 9 17 20 16 10 13
Wind_Speed
19 19 19 19 19 18 18 18 18 18 18 18 17 17 17 16 15 15 15 14 13 12 11 10 11 11 12 13 13 14 15 16 17 18 18 18 15 13 13 14 15 15 13 14 17 18 19 20 22 22 21 20 20 20 18 18 18 17 16 12 12 11 10 8 4 8 8 7 10 8 7 6 4 4 2 2 2 2 3 3 3 3 4 5 5 6 7 4
18 18 18 18 18 18 18 18 18 18 18 18 18 17 17 17 16 16 16 16 15 15 14 13 12 12 13 13 14 14 15 16 16 17 19 20 18 16 15 16 17 17 14 16 19 21 22 23 25 25 24 23 22 21 20 20 19 19 18 14 11 10 10 9 6 8 6 6 10 8 7 7 4 3 3 3 2 2 2 2 3 3 2 3 4 5 6 7
17 17 17 17 16 17 17 17 17 17 17 17 17 17 17 17 17 16 16 16 16 16 16 16 15 14 14 14 14 15 15 15 16 17 19 21 20 19 18 18 19 19 17 19 21 23 25 25 26 26 26 25 23 22 22 21 21 20 19 17 12 9 10 10 9 10 7 4 9 9 8 7 5 3 4 4 4 4 4 3 3 4 3 3 4 5 6 8
16 16 15 15 15 15 15 16 16 16 16 16 16 16 17 17 16 16 16 16 17 17 17 17 17 17 16 16 15 15 15 15 15 16 19 21 21 22 22 20 21 20 19 19 20 21 23 24 23 25 25 24 23 23 22 22 22 21 20 17 12 9 11 11 10 10 9 7 7 8 7 7 5 3 6 5 4 5 6 6 5 5 5 3 3 4 5 7
15 15 15 14 14 14 14 15 15 15 15 15 15 15 15 16 15 15 15 16 16 17 18 18 18 18 18 18 18 17 16 15 15 16 17 20 22 23 24 23 22 21 20 18 18 19 19 21 23 23 24 24 23 22 22 23 23 22 20 19 14 11 12 11 10 11 11 9 7 8 7 7 5 5 6 4 4 6 6 7 6 5 6 6 5 4 4 6
14 14 14 14 14 14 14 14 14 15 15 14 14 14 14 15 15 14 14 14 15 16 17 18 18 19 19 20 20 19 18 16 16 16 16 20 22 24 25 25 24 23 22 20 18 18 18 20 22 23 23 24 23 23 24 24 24 23 21 21 19 14 11 12 12 11 11 10 9 9 8 7 6 6 6 4 6 7 6 7 7 6 6 6 7 6 4 5
15 15 15 15 15 15 15 15 15 15 15 15 15 14 15 15 15 14 14 14 14 15 16 16 18 19 19 20 20 21 20 17 17 17 16 19 21 23 25 26 27 26 24 23 21 19 19 20 21 23 25 25 25 25 26 26 25 25 22 21 20 16 13 13 13 13 12 12 11 10 10 8 8 8 6 5 7 7 6 7 7 6 5 5 7 8 6 5
17 17 17 17 17 17 16 16 16 16 16 16 16 15 15 15 15 15 15 15 14 15 15 16 17 18 19 20 21 22 21 19 20 19 17 18 21 23 24 25 28 28 27 26 24 23 23 21 21 23 26 28 28 28 29 27 26 25 24 21 20 17 16 15 15 15 14 13 12 12 11 10 10 10 7 5 8 8 7 7 7 6 5 5 6 8 9 7
19 19 19 19 19 18 18 18 18 18 17 17 17 17 17 16 16 16 16 16 15 16 16 16 17 17 18 20 21 22 21 21 22 21 20 20 21 23 23 25 27 29 29 28 27 26 25 23 23 24 27 31 31 32 30 28 28 28 26 24 21 19 18 17 17 16 15 14 13 13 13 13 12 10 8 7 9 9 8 7 7 7 6 6 7 8 10 10
20 20 20 20 19 19 19 19 19 19 18 18 18 18 18 18 17 17 17 17 17 17 17 18 18 18 18 19 21 20 20 22 22 22 23 22 23 23 23 25 26 28 30 31 30 28 27 28 28 27 28 30 31 32 31 31 32 31 27 25 22 20 19 18 18 17 17 16 14 14 15 15 14 11 9 8 9 9 8 8 8 8 7 6 7 8 9 10
21 21 21 21 21 20 20 20 20 19 19 19 19 19 19 19 18 18 19 19 19 19 19 20 20 20 20 20 21 20 20 21 21 23 24 24 25 24 24 24 26 28 29 31 32 32 32 33 32 30 28 27 29 32 32 34 34 30 27 25 23 22 20 19 19 18 18 18 17 16 17 17 15 13 11 10 9 9 9 10 9 8 7 7 7 8 10 11
22 23 23 23 22 22 22 22 21 21 21 21 21 21 20 20 20 20 20 20 20 20 20 21 21 22 22 23 22 21 21 21 21 23 24 25 27 27 26 25 26 27 29 31 32 34 36 36 34 32 29 28 29 32 34 35 34 31 30 28 26 25 23 20 20 20 20 20 19 19 20 19 16 15 13 12 11 10 11 10 10 9 7 8 8 8 10 12
24 25 25 25 25 25 24 24 24 24 24 24 23 23 23 23 23 23 23 22 22 22 22 22 22 23 23 24 24 24 23 22 22 22 23 25 27 29 29 28 27 28 29 31 32 35 37 37 35 34 32 30 31 33 34 34 32 32 31 30 28 27 24 22 22 22 21 21 21 21 21 19 17 16 14 13 11 11 12 11 10 10 9 8 8 9 10 12
26 26 27 27 27 27 27 27 27 27 27 27 26 26 26 26 27 27 27 27 26 26 25 24 24 24 24 24 25 26 25 24 23 23 23 25 27 29 31 31 30 29 29 31 33 35 36 37 37 37 35 32 33 33 30 30 31 31 32 31 29 28 26 25 24 24 23 23 23 23 23 20 18 18 16 14 14 14 14 13 12 11 10 9 8 9 9 11
27 27 27 28 28 29 29 29 29 29 29 29 30 29 29 30 30 30 30 31 31 30 29 28 28 27 26 25 26 27 27 27 26 25 25 25 26 28 31 32 32 32 31 32 33 35 36 36 37 38 37 35 35 32 27 29 30 29 32 31 28 28 26 27 27 26 25 26 26 25 24 22 20 20 18 16 15 16 16 15 13 12 10 9 9 9 9 9
27 27 28 28 29 29 30 30 31 31 31 31 32 32 32 32 32 33 33 33 33 34 33 32 31 30 29 28 27 28 29 30 29 28 28 27 27 28 30 33 34 34 34 33 33 34 36 36 37 38 39 38 36 32 30 32 31 30 32 28 26 26 26 29 29 26 27 27 27 27 25 24 21 20 20 19 17 17 18 16 15 14 11 10 10 9 9 9
28 28 28 29 29 30 30 31 32 32 32 32 32 32 32 32 32 33 34 35 35 35 35 35 34 34 33 31 30 30 30 31 31 31 31 30 29 28 29 33 35 36 36 36 35 34 35 36 38 39 39 39 38 35 36 36 33 30 31 27 25 24 26 30 28 25 28 30 29 28 27 25 21 19 19 19 19 18 17 15 15 15 13 12 11 10 10 10
29 29 30 30 30 31 31 32 32 32 32 32 32 32 31 31 32 33 34 35 36 36 37 37 36 36 35 34 34 33 31 31 32 33 33 33 32 31 31 32 34 37 38 38 37 36 36 37 38 39 39 39 40 39 38 34 29 30 32 29 26 25 26 30 28 26 28 30 30 29 28 25 22 22 20 17 18 18 16 15 17 17 15 13 13 12 12 11
31 31 31 31 31 31 31 31 31 31 31 31 31 31 31 32 32 33 33 34 35 37 38 38 38 37 36 35 35 35 34 33 33 34 35 35 35 34 33 33 34 36 39 39 39 38 38 38 39 40 40 38 37 37 35 30 30 34 36 32 29 27 26 29 29 27 27 30 30 29 27 24 25 26 22 18 20 19 17 18 21 18 15 14 13 13 13 13
32 31 31 31 31 30 30 30 30 30 30 31 31 31 31 32 32 32 33 34 35 36 38 38 39 39 38 36 36 36 36 35 34 34 35 37 37 37 36 35 36 37 39 39 41 41 41 40 40 38 36 34 33 34 33 33 36 40 40 36 32 29 27 29 31 29 26 28 30 29 27 26 27 27 21 18 21 19 17 21 22 16 15 16 14 15 15 14
31 31 31 30 30 30 29 30 30 30 30 31 31 31 31 32 32 32 32 33 34 35 37 38 39 40 40 39 39 38 38 37 36 35 35 36 38 39 39 38 38 38 38 39 42 43 43 43 40 35 33 34 35 35 34 36 41 43 42 39 35 32 30 30 32 32 28 26 27 28 30 29 27 26 22 19 20 19 19 22 20 16 17 17 15 16 16 13
31 31 30 30 29 29 29 29 29 29 29 30 30 30 30 31 30 31 31 32 32 33 34 36 37 39 40 40 40 40 39 39 38 37 36 36 38 41 41 41 40 40 40 41 43 45 45 44 40 35 34 36 38 37 36 38 42 44 43 40 37 35 33 32 31 30 28 28 29 28 29 29 27 25 25 23 22 21 22 24 20 18 18 17 17 17 16 14
31 31 30 29 28 28 27 27 27 27 27 27 27 27 28 28 29 29 30 30 30 31 32 33 34 35 36 37 37 38 39 39 38 38 37 37 39 42 43 43 43 43 43 44 45 44 44 43 40 37 37 37 39 40 39 39 41 44 44 42 39 37 36 35 33 29 27 28 30 30 29 28 28 30 29 27 25 24 25 24 21 20 19 19 19 18 17 16
30 30 29 29 27 26 26 26 25 25 25 25 25 25 25 25 26 27 27 28 29 29 29 30 31 32 33 33 34 35 36 38 38 37 37 39 41 41 42 44 45 45 46 46 46 44 43 42 40 41 41 39 41 42 41 40 40 42 43 43 42 40 39 37 32 29 30 33 33 31 31 31 30 32 31 29 28 27 26 25 22 22 22 22 20 18 18 16
28 28 28 28 27 25 25 25 25 24 24 24 24 23 23 23 23 24 24 25 27 26 26 28 29 29 30 30 31 32 33 35 36 36 37 38 40 42 42 45 46 47 48 48 48 46 44 42 43 46 45 43 43 42 41 41 41 40 40 43 44 43 43 41 35 30 29 33 36 35 35 35 33 32 31 31 31 29 28 26 24 24 25 25 21 20 22 19
26 26 26 26 26 25 25 24 24 24 23 22 23 22 21 21 21 21 22 23 27 25 22 25 27 27 28 29 28 29 31 34 33 34 35 36 39 42 43 45 47 48 50 50 51 49 47 44 46 49 48 46 45 42 42 42 42 41 40 41 45 47 47 45 44 40 32 28 31 35 38 38 34 33 32 31 31 30 29 27 26 26 26 25 24 24 25 21
24 24 24 24 25 26 25 24 23 23 22 21 22 21 20 20 19 20 21 22 26 24 19 21 24 24 25 26 25 27 29 31 31 33 34 34 37 40 43 45 47 49 50 53 54 53 49 46 47 50 49 49 48 45 43 42 42 43 42 42 46 49 50 48 48 49 44 37 32 31 38 42 38 35 33 32 32 32 32 30 28 29 29 27 26 26 24 20
23 23 23 24 24 24 24 23 22 21 21 21 20 19 19 19 20 21 21 23 27 26 22 23 24 23 25 25 24 25 27 27 29 31 30 31 35 37 40 44 47 49 51 54 55 54 52 49 48 51 50 50 51 47 43 43 44 45 44 45 46 48 50 51 51 51 49 49 44 35 33 38 40 38 35 34 35 35 34 33 32 31 31 31 28 26 24 21
23 22 23 23 23 22 21 20 20 19 19 19 18 19 20 21 22 22 23 24 25 24 24 25 25 24 25 25 24 24 25 26 28 28 27 29 32 33 38 43 47 51 54 56 56 55 55 51 51 54 52 50 50 47 44 45 47 45 45 48 47 46 48 50 52 53 50 51 51 45 35 30 35 39 40 37 36 38 37 35 35 34 33 33 30 28 26 24
22 21 22 23 22 20 18 17 17 18 18 18 19 21 21 22 23 22 22 21 18 18 21 22 23 24 25 25 26 25 25 26 27 27 27 28 28 30 34 39 43 48 51 55 57 57 57 55 55 56 53 50 49 48 49 50 49 46 46 50 48 45 45 49 51 51 54 55 54 50 41 31 32 37 42 40 34 36 38 36 36 37 35 34 31 29 28 27
21 21 22 22 20 18 16 16 17 18 19 19 20 21 22 23 21 21 21 18 15 16 16 17 19 21 23 25 26 25 25 27 26 26 27 27 28 29 30 32 39 45 48 52 55 56 58 58 58 59 56 52 51 51 53 54 52 48 48 50 49 45 43 47 50 51 56 59 55 52 48 41 37 36 39 41 35 32 35 36 37 36 35 34 32 30 30 29
21 21 21 21 18 16 15 16 16 17 18 19 20 20 21 21 19 20 19 16 15 14 13 15 17 19 21 23 25 25 25 27 27 27 28 27 28 28 27 30 37 42 44 47 50 52 56 58 58 60 60 56 53 54 56 57 54 51 50 51 50 48 46 46 50 53 57 58 55 53 53 51 49 41 35 35 34 32 32 34 35 33 35 36 32 33 32 30
20 21 21 20 17 15 15 16 15 16 17 18 18 18 18 17 17 19 17 17 17 16 16 19 19 18 20 22 23 23 25 27 26 27 28 28 29 29 29 30 33 36 38 41 43 45 51 57 59 60 61 59 56 55 57 58 57 54 52 52 51 49 48 49 50 53 54 55 55 54 54 57 56 48 40 34 30 28 30 37 38 34 35 37 35 33 33 31
21 21 21 18 17 16 16 16 15 16 18 18 17 16 15 16 17 18 19 19 19 20 21 22 21 21 22 23 22 22 25 27 26 27 28 28 28 28 30 31 30 31 35 39 42 40 38 44 54 61 63 61 57 56 57 57 57 56 52 51 52 51 49 47 48 51 52 51 53 54 57 59 56 51 46 41 35 29 25 30 39 39 37 37 36 33 33 34
21 21 19 17 16 17 17 16 16 18 19 18 17 16 15 16 17 18 19 19 19 21 22 21 23 24 24 25 24 23 25 26 25 26 29 30 29 30 33 31 28 29 32 35 39 39 33 27 33 46 56 61 59 56 57 57 57 57 55 52 53 53 50 43 41 44 48 48 49 52 56 58 55 52 49 47 45 39 31 29 36 42 40 39 36 33 35 36
21 20 17 15 15 16 17 17 18 19 20 18 16 16 14 15 16 16 18 19 19 21 21 21 24 23 25 27 25 25 26 26 26 25 28 33 34 37 38 33 29 30 32 33 35 40 39 27 21 26 38 54 61 58 56 58 55 52 54 57 56 52 50 47 42 42 46 46 44 46 51 54 56 55 52 51 49 47 47 44 40 41 43 41 37 33 35 36
22 20 17 15 15 16 17 18 19 20 19 17 15 15 14 14 16 16 17 18 19 19 19 21 23 21 23 25 26 28 24 22 27 27 28 35 38 39 40 37 35 33 32 33 34 39 42 35 32 31 28 36 50 57 58 60 56 44 39 50 56 51 51 52 46 43 48 49 43 41 42 46 52 56 55 53 51 50 51 49 43 43 46 44 39 36 35 35
22 20 17 16 16 16 17 18 19 19 19 17 15 14 14 14 15 15 16 17 17 18 18 21 23 21 21 24 28 30 23 20 30 31 29 35 39 40 40 39 39 37 35 34 34 39 42 39 39 40 34 29 35 47 55 58 61 49 30 31 45 49 53 56 51 48 50 49 44 43 42 38 41 51 56 56 53 49 48 46 44 44 47 45 42 42 40 37
21 18 16 16 15 16 17 18 19 19 17 15 15 15 14 14 15 15 16 17 17 18 19 20 22 21 22 25 26 29 27 27 31 32 32 36 40 41 41 40 41 41 39 38 37 38 40 40 42 43 39 32 29 34 40 45 55 58 42 28 30 37 45 54 57 55 51 42 35 39 45 42 40 45 52 54 53 48 45 43 43 44 45 45 44 44 44 41
21 18 16 15 16 16 17 18 18 17 15 13 14 15 14 14 15 15 17 17 16 18 20 19 20 22 24 25 24 27 32 31 30 32 36 39 41 44 44 42 42 43 42 40 40 40 39 39 43 44 40 36 34 33 36 39 42 52 55 45 34 31 35 44 51 56 57 47 32 29 36 38 39 45 50 51 51 49 45 42 41 43 44 45 46 45 44 44
21 18 16 15 16 16 17 17 16 14 13 12 13 14 15 15 15 15 16 17 17 17 19 19 20 22 25 26 26 29 33 34 34 35 38 40 43 47 49 45 42 43 44 42 42 43 44 41 42 44 40 36 35 32 34 39 37 37 49 54 44 32 31 35 38 45 57 57 43 33 28 20 20 31 43 51 51 47 44 42 40 42 44 47 48 45 45 47
20 18 16 15 15 15 15 14 13 12 12 12 13 13 14 14 15 15 15 16 17 16 17 20 21 22 25 28 30 32 35 38 41 41 41 41 43 48 52 49 45 45 45 45 46 47 46 43 43 44 41 35 31 27 29 35 35 30 36 46 43 33 30 33 32 34 45 55 53 43 31 19 16 24 31 43 51 49 44 41 40 41 43 46 48 45 47 48
19 17 15 14 14 13 13 11 11 12 12 12 13 13 13 13 13 14 14 15 16 16 17 20 22 23 26 30 32 35 39 42 45 45 43 42 47 52 55 52 50 49 47 48 51 50 46 44 44 43 43 42 38 36 38 41 40 36 35 39 40 36 32 30 29 28 31 40 47 46 40 29 24 30 34 39 47 48 44 41 40 41 43 46 48 46 47 47
18 16 13 12 12 11 10 9 10 11 12 12 12 11 12 12 12 13 13 14 15 16 17 21 23 24 28 31 34 38 42 44 45 44 41 40 45 51 55 57 54 51 51 52 54 52 47 46 48 46 43 45 43 40 43 44 44 45 42 42 44 43 37 31 28 28 30 31 33 37 43 40 30 31 36 45 51 45 39 40 41 42 45 47 47 45 46 46
17 14 12 11 10 9 9 9 9 11 11 11 11 11 11 11 12 13 13 14 15 16 19 22 25 26 29 34 37 39 40 38 37 37 37 36 37 41 47 51 49 49 53 55 53 52 50 49 51 51 48 46 42 40 41 40 41 46 47 45 47 45 42 37 32 33 38 40 36 30 34 42 43 36 29 36 49 44 35 36 40 43 47 47 46 47 48 49
16 14 12 10 9 8 9 9 9 10 10 11 12 12 12 12 13 14 16 16 17 18 20 24 27 29 32 34 35 33 30 29 30 32 33 33 33 36 41 40 39 41 47 50 52 54 55 54 53 54 53 49 44 42 44 44 45 48 46 43 42 40 40 41 40 41 43 44 43 35 28 29 36 39 34 35 44 43 35 32 36 42 46 47 47 49 50 51
15 13 11 10 9 8 9 9 9 10 11 12 13 13 13 14 15 16 18 19 19 21 23 25 29 31 30 29 27 25 23 25 27 27 26 28 29 32 34 33 33 36 36 40 47 52 56 58 57 56 56 53 48 45 45 47 51 52 50 49 48 44 40 42 48 49 45 43 43 39 36 33 28 28 33 33 38 42 38 34 35 40 46 49 51 50 48 48
14 12 10 10 9 9 9 10 10 12 13 13 14 14 14 15 17 18 20 20 21 22 24 27 30 29 25 22 21 20 21 22 22 21 21 22 23 25 26 25 28 32 32 32 39 46 54 58 59 59 59 57 53 49 48 48 51 52 52 55 57 55 49 43 47 49 45 45 46 38 36 40 36 24 20 22 31 43 45 42 42 43 48 54 55 51 46 45
13 11 10 9 9 9 9 10 11 13 14 14 14 15 15 16 18 19 21 21 22 23 25 29 29 24 20 18 17 18 19 19 19 19 18 19 19 20 21 20 23 28 30 30 32 37 46 54 57 59 63 63 59 55 52 51 50 51 54 56 56 60 59 50 47 52 51 49 47 40 36 44 45 32 22 23 30 38 43 45 45 44 47 52 53 49 46 45
12 10 9 8 8 9 10 12 13 14 14 15 15 16 15 16 18 19 20 21 23 25 27 28 25 20 17 15 13 16 18 17 17 18 17 17 17 17 18 19 21 25 27 28 29 30 35 43 51 56 61 66 64 60 57 55 52 51 53 56 56 58 62 59 54 56 57 55 51 42 38 46 51 43 36 34 30 32 41 46 45 43 43 47 51 51 50 51
13 10 8 8 8 10 12 13 14 14 15 16 17 17 16 16 17 19 20 21 23 26 27 26 22 17 14 12 12 14 15 15 15 16 17 17 16 17 17 17 20 23 23 25 27 27 26 30 40 49 57 63 64 61 59 56 55 54 53 54 56 57 62 67 67 65 65 64 56 45 43 49 54 54 56 54 41 32 38 46 46 42 40 43 48 52 53 53
15 11 8 8 8 11 13 14 15 15 16 17 18 18 17 16 17 19 20 21 23 25 26 24 19 14 10 10 12 13 13 13 14 15 16 16 16 16 16 16 18 20 22 24 26 25 23 23 27 36 47 56 60 61 60 57 58 60 57 53 54 57 60 66 71 71 72 69 60 53 51 52 55 59 62 61 53 41 36 40 44 42 38 39 43 49 53 54
Wind_Direction
287 286 286 285 285 284 283 282 281 280 280 278 277 275 273 270 267 265 264 264 264 262 260 258 256 253 248 245 242 237 233 231 229 225 222 223 217 206 204 204 214 216 203 204 212 209 206 204 203 204 205 205 204 203 204 206 206 201 200 196 192 197 200 201 167 171 185 179 188 187 180 188 189 196 183 177 176 158 161 160 166 163 164 160 169 164 139 140
287 285 285 284 283 282 281 280 280 279 277 277 276 275 274 271 268 266 264 262 262 261 258 256 255 256 254 249 246 242 237 233 229 224 223 225 220 211 207 206 216 218 203 200 205 203 203 204 203 203 204 206 207 206 208 209 210 207 201 198 202 208 203 200 176 189 202 167 183 188 177 191 198 195 181 178 183 172 169 162 174 172 171 164 180 187 155 142
289 288 287 285 284 283 281 280 279 278 276 275 275 274 273 272 270 267 265 263 262 260 258 255 253 253 255 254 250 245 241 237 230 225 224 226 223 218 212 207 215 219 209 205 207 203 203 205 204 204 204 206 207 208 210 211 212 210 205 203 213 216 194 196 198 208 227 168 172 182 184 194 193 192 196 191 182 179 173 168 174 162 158 171 186 199 174 147
292 291 289 288 287 285 284 283 282 280 278 277 276 275 274 273 271 269 266 264 262 260 258 255 253 251 251 252 252 250 245 241 235 227 225 227 224 221 218 210 213 220 216 212 213 211 208 207 207 207 207 208 209 211 212 214 213 211 212 209 217 223 193 194 209 212 221 207 183 182 191 199 187 206 223 212 193 197 189 172 171 163 159 168 182 199 195 161
294 293 292 290 288 287 286 285 284 283 281 281 279 278 277 275 273 271 268 265 262 260 259 256 254 252 250 249 250 251 248 245 241 233 228 229 227 223 222 216 214 221 223 219 217 219 216 210 210 210 209 209 211 214 216 219 218 215 216 212 219 226 199 196 211 214 217 214 202 190 200 205 193 225 238 229 213 219 203 177 175 174 167 167 176 189 208 184
294 293 291 290 288 286 285 284 283 283 283 283 282 282 281 279 278 276 273 268 264 261 259 257 255 253 251 249 248 249 248 245 244 238 231 230 230 226 224 220 218 221 226 225 221 221 221 216 212 210 209 209 209 214 219 221 222 221 220 218 225 231 211 203 209 216 221 217 210 202 206 209 205 229 239 238 225 217 205 189 183 181 172 171 172 170 194 206
291 289 288 286 284 283 282 281 280 279 280 280 280 280 280 281 281 280 277 274 270 265 262 259 256 254 252 250 248 247 246 244 244 242 236 233 232 230 226 223 221 221 225 227 225 222 222 222 216 210 209 208 207 211 217 220 223 223 223 223 229 233 224 217 212 215 222 223 220 212 211 213 214 225 234 252 240 216 207 203 191 186 178 177 173 163 173 207
285 284 282 281 279 278 277 276 276 275 275 275 275 274 274 276 277 278 278 277 275 272 269 264 259 256 253 251 249 247 245 242 242 241 238 235 234 233 228 225 224 223 224 226 226 223 222 223 221 214 210 208 206 209 214 217 222 224 224 224 226 228 226 224 219 216 220 225 225 219 217 218 220 225 227 240 242 227 216 207 195 198 189 182 182 173 173 184
283 281 279 278 276 274 273 272 272 271 271 271 270 269 269 269 269 271 272 273 273 273 272 268 265 261 257 254 251 249 246 242 240 239 238 237 237 236 231 227 226 225 225 225 225 225 224 223 222 218 213 210 207 209 212 213 219 221 220 220 221 223 223 224 223 220 219 220 221 221 220 219 220 225 233 233 232 227 218 210 205 207 198 187 190 185 182 180
283 281 279 277 276 274 272 271 270 269 269 269 268 267 266 265 265 264 265 266 267 267 268 268 268 266 262 259 255 252 248 243 240 239 237 237 238 238 234 229 227 227 226 226 226 225 225 224 223 221 219 215 211 212 212 213 218 218 218 218 218 221 222 222 225 224 222 218 216 221 222 220 216 216 230 236 229 227 220 218 214 207 198 191 194 191 190 187
283 282 280 278 277 275 274 272 271 270 269 269 268 268 267 265 264 263 262 261 261 262 263 264 265 266 265 263 260 256 251 246 242 239 237 236 237 238 237 232 229 228 227 226 226 225 225 224 223 223 222 218 216 216 215 217 220 219 218 217 217 219 220 221 223 224 224 220 215 220 223 221 216 211 217 225 228 227 219 218 216 205 196 193 195 192 195 192
283 282 281 279 278 276 275 274 273 272 271 270 269 268 267 265 265 264 263 262 260 260 260 261 261 262 263 263 263 260 255 249 244 241 238 236 236 237 238 235 231 229 228 227 226 226 226 225 224 224 223 220 218 219 218 220 221 220 219 217 216 218 218 220 224 224 225 223 218 220 222 221 220 216 211 214 222 219 211 212 212 204 199 199 199 196 196 195
283 282 281 280 279 278 276 276 275 274 273 272 271 270 269 267 265 264 263 263 263 262 260 260 260 260 260 261 262 261 258 254 249 244 240 237 236 236 237 236 234 231 229 228 226 226 227 227 226 225 224 221 220 222 221 222 223 223 224 220 218 218 217 220 223 225 225 225 223 221 223 224 224 223 216 213 216 212 208 206 204 204 206 206 204 202 200 201
283 281 281 280 280 279 278 278 276 275 275 274 274 273 272 270 268 265 264 264 263 263 262 261 260 260 260 260 260 260 259 256 252 248 244 239 236 236 237 236 235 234 231 229 228 227 228 227 226 226 225 223 223 225 223 223 226 226 228 226 222 220 218 220 223 224 223 224 225 224 225 225 223 225 224 217 211 211 208 201 199 204 211 213 209 207 206 207
282 281 280 279 279 279 279 278 277 276 275 275 274 274 274 273 271 268 266 265 264 263 262 262 261 260 260 260 259 258 257 255 252 249 246 243 238 236 236 236 235 234 233 231 229 229 229 228 227 227 226 224 226 228 224 224 228 227 231 231 227 224 221 222 223 221 222 224 226 226 227 228 225 228 228 220 213 212 209 201 199 204 210 216 214 211 210 209
282 281 279 279 278 278 278 277 277 277 276 276 275 275 274 273 272 270 267 266 265 264 263 262 262 261 261 261 259 258 256 254 251 249 247 244 241 237 237 237 235 234 234 233 232 230 230 229 229 228 226 224 225 226 223 225 227 228 232 234 230 226 221 225 226 218 219 224 226 227 230 231 227 232 234 223 216 214 209 203 200 202 207 216 218 216 212 210
283 282 281 280 279 278 278 277 277 277 277 277 277 277 276 275 273 271 268 266 265 264 263 263 262 262 262 261 259 258 257 254 252 249 246 244 242 240 237 238 237 235 233 233 233 231 230 229 229 228 226 225 224 222 221 222 225 229 234 234 231 226 220 225 227 218 217 221 226 227 230 232 227 236 239 222 216 217 210 206 205 201 202 212 218 217 212 209
286 285 284 282 282 281 280 279 278 278 278 278 278 278 278 277 275 273 269 266 265 264 263 262 262 262 262 261 260 260 258 256 253 250 246 243 241 239 238 238 238 237 235 234 233 233 231 230 229 229 227 225 223 222 222 223 227 233 236 233 231 227 220 224 227 222 218 219 225 228 228 229 228 234 236 226 223 219 211 209 207 202 202 210 215 218 214 208
289 288 287 285 284 283 282 280 279 279 279 279 279 279 279 278 277 275 272 269 266 264 263 263 262 263 262 262 262 261 259 257 255 251 248 244 241 238 237 238 238 238 236 234 233 233 233 231 230 228 226 226 226 226 224 224 228 232 234 233 230 227 223 223 227 226 221 219 224 229 229 228 230 232 231 230 227 217 211 209 203 202 207 213 217 221 216 206
291 290 289 287 285 284 282 281 280 280 280 280 280 279 278 278 277 275 274 272 269 267 265 263 263 263 263 263 264 263 261 258 255 252 248 245 241 238 235 236 237 237 237 236 234 233 233 233 232 230 228 228 229 228 223 219 222 227 230 230 228 227 224 223 226 228 223 220 224 229 232 231 232 234 232 231 226 216 212 208 202 203 212 215 218 224 220 210
292 291 290 288 286 284 283 281 281 280 280 280 280 279 278 277 276 274 273 272 271 269 267 265 264 264 263 263 264 263 262 258 255 251 248 245 242 239 235 234 235 236 237 237 235 233 232 233 233 230 229 228 227 226 222 218 220 224 227 229 226 224 223 223 230 233 226 221 223 225 229 231 233 234 233 230 224 216 214 214 208 204 214 217 219 224 222 213
292 290 289 287 286 285 283 282 281 281 281 280 279 278 277 277 276 275 273 271 270 269 268 266 265 264 263 262 262 262 261 258 255 251 248 245 241 239 236 233 232 234 235 235 235 234 232 232 232 229 227 227 226 224 222 219 219 222 225 228 228 226 223 222 227 232 228 223 224 226 228 231 234 236 235 230 225 218 217 221 215 208 215 220 221 225 222 214
291 290 288 287 286 286 285 285 284 283 282 280 278 277 277 277 277 276 274 272 270 268 268 267 266 264 262 261 260 259 258 256 253 250 247 244 240 238 236 234 232 232 232 234 235 235 233 232 231 229 227 227 226 224 223 222 221 222 222 224 227 227 226 224 224 229 230 223 220 223 226 228 232 235 232 229 229 226 220 218 217 216 221 225 226 227 222 215
291 290 289 289 289 289 289 288 286 285 282 280 277 275 275 276 276 276 275 275 272 270 270 269 268 267 265 263 261 258 257 255 252 249 246 243 241 239 236 233 232 231 231 233 234 234 234 232 230 229 227 225 226 225 223 223 224 224 222 220 222 225 226 225 225 230 237 234 225 223 227 226 228 233 232 228 228 229 224 217 217 219 221 224 228 232 229 223
291 291 292 293 292 292 291 289 286 284 281 277 273 271 272 274 276 277 276 277 275 273 273 273 270 270 269 267 265 262 259 257 254 250 246 243 240 238 235 232 230 230 230 230 232 233 231 229 228 228 225 223 225 225 223 223 225 225 223 221 220 221 223 222 221 222 234 239 229 225 231 230 229 232 233 230 229 230 228 220 217 221 223 223 224 227 230 227
293 294 295 296 295 294 292 289 287 283 279 274 270 270 271 274 277 277 277 279 278 276 275 275 272 271 270 268 267 266 262 260 257 253 249 244 240 237 234 231 229 229 229 228 229 230 229 226 226 227 225 223 223 223 222 222 223 225 223 222 221 221 220 220 220 220 225 233 226 224 231 233 233 234 232 233 233 233 231 226 223 225 228 227 224 223 224 225
298 299 300 299 298 296 294 291 288 284 279 272 269 268 271 276 278 276 277 278 277 277 275 272 272 271 269 267 266 265 263 262 259 255 250 246 241 237 233 230 228 227 227 228 228 228 227 224 226 227 224 224 222 220 221 221 221 224 222 221 221 222 221 219 220 222 225 230 228 225 228 231 234 234 232 232 232 232 233 231 228 226 228 230 227 224 223 225
304 303 302 300 299 297 295 293 290 286 280 273 270 270 273 276 274 273 275 273 274 279 277 270 269 269 268 267 265 265 265 264 260 256 251 247 242 237 234 230 227 224 224 226 228 228 226 223 225 228 224 223 223 219 220 221 221 222 223 222 221 221 222 221 221 223 225 229 228 225 228 232 235 234 231 230 228 230 232 233 229 226 228 231 228 225 222 224
304 302 301 301 300 297 295 292 289 286 280 276 274 273 273 273 271 274 275 273 276 281 278 272 268 266 266 265 264 263 264 264 262 260 255 249 243 238 235 231 228 225 224 224 224 225 226 222 223 228 224 222 225 221 218 221 222 221 223 225 222 220 223 224 224 224 225 228 227 225 224 231 237 232 225 226 226 227 229 232 234 231 229 229 228 226 221 222
303 302 304 304 301 296 293 291 288 283 279 276 274 272 272 273 275 277 275 275 281 281 276 275 270 265 264 264 263 261 261 262 262 261 258 253 247 241 237 234 231 228 226 226 224 224 225 221 220 226 224 219 222 221 219 221 221 219 222 227 224 220 222 225 226 226 226 228 226 223 219 221 235 230 222 223 226 227 229 231 235 234 231 227 226 227 224 221
304 303 306 305 298 291 289 288 285 281 280 276 273 273 274 276 277 273 270 275 283 280 277 278 272 266 264 263 263 262 260 260 259 258 256 253 250 245 240 237 232 228 226 227 225 223 225 223 220 224 223 217 217 219 220 220 220 218 220 226 225 220 221 225 226 226 228 229 227 225 220 219 227 225 218 222 226 227 229 229 232 233 232 230 226 226 226 223
305 304 307 303 294 288 290 290 287 287 286 282 279 278 276 276 271 266 265 268 273 279 281 278 273 269 266 263 263 262 259 258 257 255 254 250 248 245 239 237 234 229 226 227 227 225 225 224 222 224 224 218 214 216 220 220 219 218 218 223 224 220 220 223 225 227 228 230 229 228 226 225 227 223 214 219 226 226 224 223 228 232 232 233 229 223 226 227
308 306 307 301 291 287 289 291 294 298 297 291 285 281 276 272 266 264 267 265 268 278 279 274 273 270 266 263 265 262 257 257 254 252 251 247 246 246 240 238 237 232 228 226 226 225 226 226 224 225 226 221 214 214 220 221 219 218 218 221 223 221 220 223 225 227 229 231 231 230 230 230 231 226 215 214 222 225 227 226 228 232 233 232 228 222 224 228
313 308 305 296 289 286 285 290 301 308 306 298 289 282 276 271 267 268 270 270 273 276 273 272 272 267 263 263 264 260 256 257 253 249 247 243 243 245 241 237 235 231 229 229 225 222 225 228 226 226 227 224 217 213 218 222 221 219 218 221 224 220 220 224 227 228 229 231 234 233 232 232 233 230 222 220 223 223 227 229 224 226 232 232 228 224 224 226
314 309 302 293 289 287 287 294 305 311 309 302 292 284 278 274 273 272 273 275 276 274 273 272 268 266 264 263 261 257 256 257 252 245 244 240 237 239 240 237 234 231 228 229 228 223 221 224 228 232 232 228 221 215 216 220 222 222 218 220 225 221 218 222 227 230 230 232 236 236 234 233 234 233 228 224 225 224 227 226 216 217 225 229 226 222 221 223
316 311 303 294 292 291 292 298 305 309 308 304 294 286 281 276 276 276 277 279 277 276 276 272 266 264 263 264 262 256 253 255 254 245 243 242 238 240 242 237 233 234 230 226 228 226 221 214 209 223 233 230 224 219 217 218 220 223 222 221 224 223 219 219 223 226 228 230 234 238 238 235 234 234 232 228 224 223 227 230 223 218 222 225 223 220 220 222
318 315 307 300 296 295 296 300 305 308 307 302 294 288 286 281 280 281 280 281 280 278 274 270 268 263 261 265 265 258 251 250 254 248 241 244 243 242 243 238 231 232 233 230 229 229 225 216 205 204 214 224 223 221 219 217 215 217 222 225 226 224 219 219 221 223 226 227 229 233 236 237 236 234 233 231 226 222 224 229 227 224 226 227 227 227 225 224
318 317 310 304 301 299 300 303 306 308 305 301 296 292 290 287 288 289 287 286 283 279 271 267 269 268 261 260 261 262 257 246 251 251 244 247 248 244 243 240 234 231 232 232 231 231 228 222 216 211 210 215 221 221 219 216 215 211 207 221 229 226 221 219 218 219 224 228 228 229 230 233 238 238 234 231 229 224 224 227 227 227 230 230 229 230 229 228
316 314 308 305 305 304 306 308 308 308 305 303 301 300 300 298 298 297 294 291 286 281 276 270 271 271 263 257 261 268 264 251 252 255 252 251 251 248 244 240 237 233 231 231 231 232 229 224 221 217 217 217 217 220 217 214 215 211 201 200 220 225 223 222 222 220 221 225 229 233 234 232 234 238 237 233 231 227 223 224 225 226 230 231 229 230 230 231
316 313 310 309 310 311 313 312 309 307 307 306 304 306 308 306 304 302 298 294 288 283 282 278 273 270 267 266 267 268 266 262 259 257 256 255 253 252 247 240 237 235 232 231 231 232 230 226 223 222 225 224 218 218 217 211 212 212 207 202 206 212 215 221 225 224 222 222 222 227 235 238 240 242 242 239 234 229 223 219 220 221 226 230 230 229 230 232
322 319 317 315 314 315 315 313 310 308 311 312 310 310 310 308 307 305 301 298 294 291 288 283 277 273 274 275 272 270 271 272 268 260 258 257 255 254 249 240 235 234 233 231 231 231 228 224 221 219 221 224 220 221 223 216 212 213 212 209 210 212 211 215 222 223 222 223 221 220 224 235 246 244 244 242 237 231 224 218 217 218 220 226 229 227 229 232
330 328 322 318 316 316 314 314 314 314 316 316 315 314 312 311 309 307 307 303 300 299 295 289 285 284 283 281 279 278 276 274 270 266 263 260 257 255 250 242 235 233 232 231 230 230 227 223 222 219 217 216 210 211 221 218 210 209 213 211 213 218 215 213 218 219 221 223 222 220 216 215 231 232 235 242 238 231 224 217 217 219 219 224 229 226 227 230
334 331 325 319 315 314 315 318 319 320 320 318 317 317 315 315 314 310 311 307 302 301 298 293 291 289 286 281 279 278 274 272 271 269 268 265 260 256 251 246 240 235 233 233 232 230 225 223 224 222 221 220 215 212 217 216 209 208 210 207 210 216 214 215 218 216 222 227 226 224 217 213 236 243 235 237 235 229 224 218 216 218 218 222 227 226 226 230
335 332 328 323 318 321 325 326 324 322 322 320 320 322 321 320 317 314 312 309 306 305 301 297 296 293 289 285 282 277 274 273 273 272 271 267 264 260 255 251 246 240 237 235 232 228 224 224 224 222 221 223 224 223 223 222 219 216 211 207 209 211 210 214 214 209 215 222 222 227 223 214 223 245 244 238 234 228 225 222 216 216 218 221 224 224 225 228
337 335 332 329 329 334 335 332 327 324 325 326 325 327 326 322 319 317 315 314 314 312 308 305 302 300 295 290 286 282 278 277 276 274 271 267 263 261 257 254 250 245 240 236 232 228 225 224 225 223 220 219 220 222 221 220 221 219 213 209 211 211 211 213 212 209 213 211 206 213 225 222 223 235 246 240 233 226 223 224 217 213 218 221 223 222 221 222
340 338 338 342 344 345 341 336 333 333 334 335 333 332 328 324 322 320 319 321 321 319 316 311 307 305 300 293 288 283 280 280 277 273 270 266 261 257 255 256 254 249 243 237 234 230 227 225 225 224 222 219 216 217 217 214 216 218 212 208 211 214 213 212 210 213 214 209 204 201 204 214 223 233 243 246 240 231 223 224 221 215 217 220 222 223 221 221
341 341 344 352 354 351 349 347 346 348 346 342 340 338 331 324 324 323 324 326 326 324 321 316 312 310 303 294 288 283 281 282 278 273 269 265 261 259 257 255 254 252 247 239 233 231 229 227 225 224 224 222 219 219 220 219 220 220 214 208 207 205 207 212 212 213 213 210 210 204 194 189 194 218 240 247 245 237 225 221 220 216 214 217 220 223 222 224
342 347 351 355 356 357 359 358 354 351 347 344 342 339 333 327 326 328 330 330 329 327 324 321 319 315 304 292 287 287 288 287 280 275 271 267 264 262 261 256 251 250 248 242 234 229 228 228 225 224 224 224 221 219 221 221 220 220 216 213 209 202 203 210 210 209 210 211 212 209 200 191 183 191 222 231 233 232 224 218 218 214 212 214 218 220 220 222
342 349 354 357 359 360 359 355 350 347 345 345 343 340 336 332 330 332 334 333 333 333 330 327 326 319 304 294 292 292 293 290 284 278 275 273 268 264 263 257 249 244 242 241 238 232 229 228 226 225 224 224 222 219 220 222 220 219 218 217 215 209 205 205 204 206 209 208 206 206 203 196 187 186 204 217 222 224 217 215 219 216 213 215 216 217 217 217
338 346 355 356 355 352 350 349 348 346 345 346 345 342 337 335 333 335 339 338 337 338 335 333 331 319 303 298 296 296 295 289 286 283 278 276 273 269 265 256 248 243 236 234 237 236 233 229 226 225 226 226 224 221 221 224 222 221 220 218 217 213 208 205 204 206 208 205 202 203 205 198 190 192 204 210 212 212 207 209 216 216 215 216 216 216 216 215
340 340 348 349 347 345 345 346 345 344 344 345 346 344 339 338 339 340 343 344 343 342 339 337 334 320 306 303 303 301 298 291 286 282 278 277 275 271 269 261 253 248 239 232 232 233 233 232 227 226 226 226 225 223 223 225 225 223 221 219 219 216 211 210 209 208 208 206 202 204 209 203 196 201 212 213 209 205 201 204 212 215 215 216 216 217 218 218
345 335 331 335 341 341 341 344 344 341 344 345 345 344 343 343 344 346 348 350 348 345 342 342 341 330 313 311 309 303 299 294 288 281 274 271 269 267 268 266 259 253 245 237 233 229 228 231 230 229 228 226 225 223 220 220 222 222 220 219 220 220 218 217 216 214 213 211 207 209 214 210 203 208 218 219 214 210 206 206 212 214 214 215 216 217 219 220